Location: Peebles
(55.6412°N, 3.1714°W)
Time: 22:28:02
(UTC+01:00)

CENTAUR R/B - Pass Details

Date: 28 January 2022
Orbit: 716 x 1471 km, 63.4° (Epoch: 08 May)

Event Time Altitude Azimuth Distance (km) Brightness Sun altitude
Rises 20:58:22 0° 301° (WNW) 3,920 6.6 -36.0°
Reaches altitude 10° 21:00:55 10° 305° (NW) 3,063 5.8 -36.3°
Enters shadow 21:07:12 59° 346° (NNW) 1,462 3.4 -37.1°
